Showing default

LEMUR 2 ARIANNA, 62699

Orbit data source: Space-Track

LEMUR 2 ARIANNA, 62699 is a payload satellite owned by Spire (US) in SSO that was launched on Tue, 14 Jan 2025 UTC via an FALCON 9 launch vehicle from the Air Force Western Test Range (AFWTR). Payload-class satellites include a variety of spacecraft equipped with specific instruments for various scientific and technological missions. These include communications satellites like Starlink; space stations such as the ISS; scientific satellites like the Hubble; Earth observation satellites from companies like Planet Labs, Umbra, and HawkEye 360; GPS; miniature CubeSats for education and research; and military/defense satellites.

Loading next visibility...
Identifier
62699, 2025-009CU
Orbit
SSO
Country
Flag of USUS
Related business
Manufacturer
Spire/Glasgow
Mission
Operational Commercial Com/MetRO
Bus & Motor
CUBESAT 3U, Unknown motor
Mass
7.6 kg wet, 7.6 kg dry
Launch date (UTC)
2025-01-14 (1 year ago)
Launch vehicle
FALCON 9
Launch site
Air Force Western Test Range (AFWTR)
Object type
Payload
Rocket body
Debris
Shape & HBR
Box + 2 Pan, 0.2 m
Radar Cross Section
0.063 m², Small (<0.1 m²)

Expand to show TLE details & history
Last TLE update: 14 hours ago

TLE from 14 hours ago
0 LEMUR 2 ARIANNA
1 62699U 25009CU  26124.79164612  .00008241  00000-0  63658-3 0  9995
2 62699  97.6825 206.5657 0000500 296.0397  64.0776 15.01789507 71048
Epoch: 2026-05-04T18:59Z
TLE epoch observation values (Epoch: 2026-05-04T18:59:58.224Z)
Latitude
-0.00003°
Longitude
58.89734°
Altitude
564.284 km
Speed
7.579 km/s
True Right ascension
13h 46m 15s
True Declination
0° 00' 00"
Sunlit
Object was in full shadow at epoch
Visualization orbit readout
Latitude
Unknown
Longitude
Unknown
Altitude
Unknown
Speed
Unknown
Apparent Right ascension
Unknown
Apparent Declination
Unknown
Sunlit
N/A
Visualization observer readout
Local Sidereal Time
16:49:33
Azimuth
Unknown
Elevation
Unknown
Doppler factor
Unknown
Orbital elements
Apogee altitude
558.727 km
Perigee altitude
558.033 km
Semi-major axis
6,936.517 km
Eccentricity
0.00005
Inclination
97.6825°
RAAN
206.5657°
Arg. of periapsis
296.0397°
True anomaly
64.08275°
Mean anomaly
64.0776°
Eccentric anomaly
64.08018°
Mean motion
3.75691 °/min
Orbital period
95.82 mins
BSTAR
0.00063658
Loading maneuver chart data...
Computing Atmospheric mass density...
Loading historical data...
Loading historical data...
Loading historical data...
Loading historical data...
Loading historical data...
Loading historical data...
Loading historical data...

Documentation

Showing up to 5 results
|